Showing default

GRUS-1E, 47935

Orbit data source: Space-Track

GRUS-1E, 47935 is a payload satellite owned by AXELSPACE (JP) in SSO that was launched on Mon, 22 Mar 2021 UTC via a SOYUZ-2-1A launch vehicle from the Tyuratam Missile And Space Complex (TTMTR). Payload-class satellites include a variety of spacecraft equipped with specific instruments for various scientific and technological missions. These include communications satellites like Starlink; space stations such as the ISS; scientific satellites like the Hubble; Earth observation satellites from companies like Planet Labs, Umbra, and HawkEye 360; GPS; miniature CubeSats for education and research; and military/defense satellites.

Loading next visibility...
Identifier
47935, 2021-022D
Orbit
SSO
Country
Flag of JPJP / JPN
Related business
Manufacturer
AXELSPACE
Mission
Operational Commercial Imaging
Bus & Motor
GRUS, Unknown motor
Mass
80 kg wet, 80 kg dry
Launch date (UTC)
2021-03-22 (5 years ago)
Launch vehicle
SOYUZ-2-1A
Launch site
Tyuratam Missile And Space Complex (TTMTR)
Object type
Payload
Rocket body
Debris
Shape & HBR
Box, 0.3 m
Radar Cross Section
0.375 m², Medium (>0.1 m² and < 1m²)

Expand to show TLE details & history
Last TLE update: 22 hours ago

TLE from 22 hours ago
0 GRUS-1E
1 47935U 21022D   26172.54667319  .00000925  00000-0  81219-4 0  9995
2 47935  97.5392  56.8008 0008963 310.3251  49.7189 14.98892880286600
Epoch: 2026-06-21T13:07Z
TLE epoch observation values (Epoch: 2026-06-21T13:07:12.563Z)
Latitude
0.00001°
Longitude
-49.74693°
Altitude
569.349 km
Speed
7.579 km/s
True Right ascension
03h 47m 12s
True Declination
0° 00' 00"
Sunlit
Object was in daylight at epoch
Visualization orbit readout
Latitude
Unknown
Longitude
Unknown
Altitude
Unknown
Speed
Unknown
Apparent Right ascension
Unknown
Apparent Declination
Unknown
Sunlit
N/A
Visualization observer readout
Local Sidereal Time
21:41:00
Azimuth
Unknown
Elevation
Unknown
Doppler factor
Unknown
Orbital elements
Apogee altitude
573.541 km
Perigee altitude
561.09 km
Semi-major axis
6,945.453 km
Eccentricity
0.0009
Inclination
97.5392°
RAAN
56.8008°
Arg. of periapsis
310.3251°
True anomaly
49.79731°
Mean anomaly
49.7189°
Eccentric anomaly
49.7581°
Mean motion
3.74966 °/min
Orbital period
96.01 mins
BSTAR
0.000081219
Loading maneuver chart data...
Computing Atmospheric mass density...
Loading historical data...
Loading historical data...
Loading historical data...
Loading historical data...
Loading historical data...
Loading historical data...
Loading historical data...

Documentation

Showing up to 5 results
|